SL-16 DEB, 22327

Orbit data source: Space-Track

SL-16 DEB, 22327 is space debris in LEO originally from a launch on Fri, 25 Dec 1992 UTC launched from the Tyuratam Missile And Space Complex (TTMTR). Debris objects in space refer to the collection of defunct objects orbiting the Earth. Examples of debris include non-operational satellites, rocket bodies, and fragments generated from explosions, collisions, or faulty payload assembly.

Loading next visibility...
Identifier
22327, 1992-093Q
Orbit
LEO
Country
Flag of CISCIS
Related business
Manufacturer
Unknown
Mission
Spacecraft
Bus & Motor
Unknown
Mass
Unknown
Launch date (UTC)
1992-12-25 (33 years ago)
Launch vehicle
Unknown
Launch site
Tyuratam Missile And Space Complex (TTMTR)
Object type
Payload
Rocket body
Debris
Shape & HBR
Unknown shape, 0.6 m
Radar Cross Section
Medium (>0.1 m² and <1 m²)

Expand to show TLE details & history
Last TLE update: 8 hours ago

TLE from 8 hours ago
0 SL-16 DEB
1 22327U 92093Q   26126.98329126  .00008672  00000-0  65883-3 0  9992
2 22327  71.1126  87.2387 0053440  26.3745  35.1030 15.01278019757155
Epoch: 2026-05-06T23:35Z
TLE epoch observation values (Epoch: 2026-05-06T23:35:56.364Z)
Latitude
56.63801°
Longitude
-100.46655°
Altitude
541.618 km
Speed
7.614 km/s
True Right ascension
07h 53m 25s
True Declination
56° 28' 30"
Sunlit
Object was in daylight at epoch
Visualization orbit readout
Latitude
Unknown
Longitude
Unknown
Altitude
Unknown
Speed
Unknown
Apparent Right ascension
Unknown
Apparent Declination
Unknown
Sunlit
N/A
Visualization observer readout
Local Sidereal Time
15:27:34
Azimuth
Unknown
Elevation
Unknown
Doppler factor
Unknown
Orbital elements
Apogee altitude
597.865 km
Perigee altitude
523.702 km
Semi-major axis
6,938.921 km
Eccentricity
0.00534
Inclination
71.1126°
RAAN
87.2387°
Arg. of periapsis
26.3745°
True anomaly
35.45708°
Mean anomaly
35.103°
Eccentric anomaly
35.27985°
Mean motion
3.75496 °/min
Orbital period
95.87 mins
BSTAR
0.00065883
Loading maneuver chart data...
Computing Atmospheric mass density...
Loading historical data...
Loading historical data...
Loading historical data...
Loading historical data...
Loading historical data...
Loading historical data...
Loading historical data...

Documentation

Showing up to 5 results
|